EZY17BC EGBB-LMML

Flight info

Callsign EZY17BC
Flight time N/A
Altitude 35000
Route ADMEX Y321 EMKUK UL612 OGULO DCT OKASI DCT OKEKO DCT MOU DCT MADIV DCT MOKIP DCT TUFTA DCT KOGAS DCT MEDAM DCT NITAM DCT MOGBO DCT BAKRO DCT PAL DCT MARON DCT EKOLA L12 GZO
Aircraft A320/M-SDE2E3FGHIJ1RWXYZ/LB1

Departure

Time 2026-05-04 20:10
Airport Birmingham Airport (EGBB)

Arrival

Time N/A
Airport Malta International Airport (LMML)
Time Latitude Longitude Altitude Speed Heading
2026-05-04 20:00 52.45188 -1.73509 323 ft 0 kts 236°
2026-05-04 20:03 52.45187 -1.73512 323 ft 2 kts 236°
2026-05-04 20:03 52.45170 -1.73552 323 ft 5 kts 236°
2026-05-04 20:04 52.45154 -1.73590 323 ft 4 kts 236°
2026-05-04 20:04 52.45122 -1.73669 323 ft 9 kts 236°
2026-05-04 20:04 52.45083 -1.73736 323 ft 7 kts 214°
2026-05-04 20:04 52.45026 -1.73832 323 ft 17 kts 207°
2026-05-04 20:05 52.44936 -1.73775 323 ft 12 kts 143°
2026-05-04 20:05 52.44877 -1.73705 323 ft 9 kts 147°
2026-05-04 20:05 52.44821 -1.73688 323 ft 7 kts 188°
2026-05-04 20:05 52.44777 -1.73705 324 ft 5 kts 195°
2026-05-04 20:06 52.44747 -1.73722 324 ft 5 kts 199°
2026-05-04 20:06 52.44684 -1.73705 323 ft 10 kts 149°
2026-05-04 20:06 52.44633 -1.73644 323 ft 8 kts 144°
2026-05-04 20:06 52.44592 -1.73596 323 ft 6 kts 144°
2026-05-04 20:07 52.44547 -1.73543 323 ft 13 kts 144°
2026-05-04 20:07 52.44458 -1.73440 323 ft 13 kts 146°
2026-05-04 20:07 52.44390 -1.73408 323 ft 9 kts 191°
2026-05-04 20:07 52.44351 -1.73474 323 ft 7 kts 242°
2026-05-04 20:08 52.44333 -1.73524 325 ft 4 kts 237°
2026-05-04 20:08 52.44318 -1.73605 324 ft 9 kts 286°
2026-05-04 20:08 52.44352 -1.73651 325 ft 5 kts 333°
2026-05-04 20:08 52.44372 -1.73675 325 ft 3 kts 323°
2026-05-04 20:09 52.44387 -1.73692 325 ft 4 kts 326°
2026-05-04 20:09 52.44502 -1.73819 328 ft 50 kts 326°
2026-05-04 20:09 52.44996 -1.74367 327 ft 115 kts 326°
2026-05-04 20:09 52.45806 -1.75273 325 ft 166 kts 324°
2026-05-04 20:10 52.46779 -1.76393 835 ft 164 kts 326°
2026-05-04 20:10 52.47389 -1.77039 1422 ft 150 kts 328°
2026-05-04 20:10 52.48251 -1.77899 1994 ft 152 kts 327°
2026-05-04 20:10 52.49198 -1.78893 2207 ft 169 kts 328°
2026-05-04 20:11 52.50278 -1.79822 2536 ft 180 kts 349°
2026-05-04 20:11 52.51547 -1.79754 2916 ft 190 kts 19°
2026-05-04 20:11 52.52740 -1.78665 3240 ft 206 kts 39°
2026-05-04 20:11 52.53660 -1.76725 3518 ft 226 kts 67°
2026-05-04 20:12 52.53892 -1.74165 4163 ft 232 kts 97°
2026-05-04 20:12 52.53565 -1.71547 4857 ft 236 kts 102°
2026-05-04 20:12 52.52986 -1.68046 5765 ft 241 kts 114°
2026-05-04 20:12 52.52432 -1.66448 6130 ft 250 kts 126°
2026-05-04 20:13 52.51196 -1.64276 6420 ft 271 kts 136°
2026-05-04 20:13 52.49780 -1.62164 7019 ft 279 kts 143°
2026-05-04 20:13 52.48209 -1.60255 7733 ft 283 kts 144°
2026-05-04 20:13 52.46594 -1.58367 8463 ft 287 kts 145°
2026-05-04 20:14 52.44955 -1.56477 9165 ft 291 kts 145°
2026-05-04 20:14 52.43287 -1.54563 9870 ft 294 kts 146°
2026-05-04 20:14 52.41584 -1.52609 10340 ft 308 kts 146°
2026-05-04 20:14 52.39767 -1.50516 10508 ft 331 kts 145°
2026-05-04 20:15 52.37850 -1.48318 10963 ft 341 kts 148°
2026-05-04 20:15 52.35735 -1.46526 11597 ft 344 kts 160°
2026-05-04 20:15 52.33426 -1.45471 12270 ft 346 kts 171°
2026-05-04 20:15 52.31050 -1.44797 12938 ft 348 kts 171°
2026-05-04 20:16 52.28655 -1.44121 13585 ft 350 kts 171°
2026-05-04 20:16 52.26242 -1.43443 14213 ft 353 kts 171°
2026-05-04 20:16 52.23817 -1.42759 14824 ft 355 kts 171°
2026-05-04 20:16 52.21377 -1.42070 15429 ft 357 kts 171°
2026-05-04 20:17 52.18919 -1.41376 16006 ft 360 kts 171°
2026-05-04 20:17 52.16442 -1.40678 16584 ft 362 kts 171°
2026-05-04 20:17 52.13961 -1.39977 17149 ft 364 kts 171°
2026-05-04 20:17 52.11453 -1.39269 17700 ft 366 kts 171°
2026-05-04 20:18 52.08937 -1.38561 18235 ft 368 kts 171°
2026-05-04 20:18 52.06408 -1.37850 18761 ft 370 kts 171°
2026-05-04 20:18 52.03858 -1.37133 19277 ft 373 kts 171°
2026-05-04 20:18 52.01298 -1.36414 19781 ft 375 kts 171°
2026-05-04 20:19 51.98725 -1.35630 20285 ft 378 kts 167°
2026-05-04 20:19 51.96230 -1.34220 20792 ft 382 kts 156°
2026-05-04 20:19 51.93848 -1.32293 21287 ft 384 kts 155°
2026-05-04 20:19 51.91453 -1.30351 21756 ft 386 kts 155°
2026-05-04 20:20 51.89039 -1.28408 22216 ft 388 kts 155°
2026-05-04 20:20 51.86608 -1.26459 22674 ft 391 kts 156°
2026-05-04 20:20 51.84167 -1.24505 23086 ft 393 kts 156°
2026-05-04 20:20 51.81710 -1.22539 23501 ft 395 kts 156°
2026-05-04 20:21 51.79244 -1.20566 23899 ft 397 kts 156°
2026-05-04 20:21 51.76762 -1.18580 24289 ft 399 kts 156°
2026-05-04 20:21 51.71759 -1.14589 25036 ft 403 kts 156°
2026-05-04 20:22 51.69238 -1.12577 25380 ft 405 kts 156°
2026-05-04 20:22 51.66707 -1.10559 25717 ft 407 kts 156°
2026-05-04 20:22 51.64197 -1.08562 26045 ft 408 kts 156°
2026-05-04 20:22 51.61630 -1.06434 26373 ft 411 kts 151°
2026-05-04 20:23 51.59254 -1.03838 26670 ft 415 kts 147°
2026-05-04 20:23 51.56934 -1.01173 26978 ft 416 kts 147°
2026-05-04 20:23 51.54539 -0.98424 27283 ft 418 kts 146°
2026-05-04 20:23 51.52198 -0.95744 27591 ft 420 kts 147°
2026-05-04 20:24 51.49814 -0.93029 27891 ft 421 kts 147°
2026-05-04 20:24 51.47418 -0.90312 28181 ft 422 kts 147°
2026-05-04 20:24 51.44935 -0.87814 28453 ft 422 kts 154°
2026-05-04 20:24 51.42254 -0.85932 28721 ft 422 kts 160°
2026-05-04 20:25 51.39521 -0.84203 28966 ft 423 kts 160°
2026-05-04 20:25 51.36780 -0.82457 29208 ft 425 kts 160°
2026-05-04 20:25 51.34031 -0.80697 29450 ft 426 kts 159°
2026-05-04 20:25 51.31276 -0.78927 29706 ft 427 kts 159°
2026-05-04 20:26 51.28518 -0.77158 29942 ft 428 kts 159°
2026-05-04 20:26 51.25751 -0.75390 30163 ft 429 kts 160°
2026-05-04 20:26 51.22974 -0.73625 30374 ft 430 kts 160°
2026-05-04 20:26 51.20191 -0.71863 30591 ft 431 kts 160°
2026-05-04 20:27 51.17416 -0.70105 30876 ft 430 kts 159°
2026-05-04 20:27 51.14640 -0.68345 31143 ft 430 kts 159°
2026-05-04 20:27 51.11861 -0.66588 31402 ft 429 kts 159°
2026-05-04 20:27 51.09088 -0.64838 31656 ft 429 kts 159°
2026-05-04 20:28 51.06328 -0.63050 31915 ft 429 kts 156°
2026-05-04 20:28 51.03721 -0.60743 32166 ft 430 kts 147°
2026-05-04 20:28 51.01244 -0.58079 32390 ft 430 kts 147°
2026-05-04 20:28 50.98765 -0.55416 32624 ft 430 kts 147°
2026-05-04 20:29 50.96284 -0.52761 32869 ft 430 kts 147°
2026-05-04 20:29 50.93806 -0.50114 33095 ft 430 kts 147°
2026-05-04 20:29 50.91330 -0.47473 33339 ft 429 kts 147°
2026-05-04 20:29 50.88852 -0.44839 33576 ft 429 kts 147°
2026-05-04 20:30 50.86374 -0.42212 33807 ft 428 kts 147°
2026-05-04 20:30 50.83899 -0.39595 34019 ft 428 kts 147°
2026-05-04 20:30 50.81417 -0.36978 34241 ft 428 kts 147°
2026-05-04 20:30 50.78938 -0.34365 34443 ft 428 kts 147°
2026-05-04 20:31 50.76460 -0.31758 34630 ft 429 kts 147°
2026-05-04 20:31 50.73976 -0.29148 34794 ft 429 kts 147°
2026-05-04 20:31 50.71489 -0.26535 34963 ft 429 kts 147°
2026-05-04 20:31 50.69011 -0.23928 35013 ft 427 kts 147°
2026-05-04 20:32 50.64080 -0.18738 35007 ft 426 kts 148°
2026-05-04 20:32 50.59150 -0.13575 35010 ft 426 kts 148°
2026-05-04 20:33 50.54219 -0.08432 35010 ft 425 kts 148°
2026-05-04 20:33 50.49287 -0.03290 35004 ft 425 kts 148°
2026-05-04 20:34 50.44350 0.01839 35006 ft 425 kts 148°
2026-05-04 20:34 50.39422 0.06943 35024 ft 424 kts 149°
2026-05-04 20:35 50.34511 0.12015 35028 ft 422 kts 149°
2026-05-04 20:35 50.29611 0.17060 35025 ft 421 kts 149°
2026-05-04 20:36 50.24723 0.22086 35021 ft 420 kts 149°
2026-05-04 20:36 50.19840 0.27101 35016 ft 420 kts 149°
2026-05-04 20:37 50.14966 0.32116 35018 ft 420 kts 149°
2026-05-04 20:37 50.10099 0.37124 35014 ft 419 kts 149°
2026-05-04 20:38 50.05232 0.42107 35013 ft 419 kts 149°
2026-05-04 20:38 50.00365 0.47062 34999 ft 418 kts 149°
2026-05-04 20:39 49.95500 0.52006 35004 ft 418 kts 149°
2026-05-04 20:39 49.90637 0.56958 34997 ft 418 kts 149°
2026-05-04 20:40 49.85786 0.61923 34997 ft 419 kts 146°
2026-05-04 20:40 49.81236 0.67594 35001 ft 420 kts 144°
2026-05-04 20:41 49.76731 0.73257 35001 ft 420 kts 144°
2026-05-04 20:41 49.72200 0.78947 34994 ft 420 kts 144°
2026-05-04 20:42 49.67667 0.84630 34997 ft 419 kts 144°
2026-05-04 20:42 49.63131 0.90284 34992 ft 419 kts 144°
2026-05-04 20:43 49.58590 0.95931 34992 ft 419 kts 144°
2026-05-04 20:43 49.54051 1.01580 34995 ft 420 kts 144°
2026-05-04 20:44 49.49511 1.07215 34990 ft 419 kts 144°
2026-05-04 20:44 49.44968 1.12836 34996 ft 419 kts 144°
2026-05-04 20:45 49.40422 1.18448 34995 ft 419 kts 144°
2026-05-04 20:45 49.35873 1.24048 35004 ft 419 kts 144°
2026-05-04 20:46 49.31318 1.29630 35006 ft 419 kts 145°
2026-05-04 20:46 49.26760 1.35219 35008 ft 420 kts 145°
2026-05-04 20:47 49.22209 1.40794 35005 ft 419 kts 145°
2026-05-04 20:47 49.17652 1.46348 35004 ft 419 kts 145°
2026-05-04 20:48 49.13096 1.51890 34987 ft 418 kts 145°
2026-05-04 20:48 49.08540 1.57415 34986 ft 418 kts 145°
2026-05-04 20:49 49.03979 1.62926 34984 ft 418 kts 145°
2026-05-04 20:49 48.99417 1.68427 34979 ft 418 kts 145°
2026-05-04 20:50 48.94855 1.73934 34978 ft 419 kts 145°
2026-05-04 20:50 48.90284 1.79432 34978 ft 419 kts 145°
2026-05-04 20:51 48.85710 1.84915 34974 ft 419 kts 146°
2026-05-04 20:51 48.81131 1.90376 34968 ft 418 kts 146°
2026-05-04 20:52 48.76564 1.95826 34958 ft 418 kts 146°
2026-05-04 20:52 48.72694 2.00427 34955 ft 418 kts 146°
2026-05-04 20:53 48.68114 2.05870 34956 ft 418 kts 146°
2026-05-04 20:53 48.63537 2.11296 34959 ft 418 kts 146°
2026-05-04 20:54 48.58969 2.16706 34958 ft 417 kts 146°
2026-05-04 20:54 48.54662 2.22540 34955 ft 420 kts 139°
2026-05-04 20:55 48.50544 2.28802 34954 ft 420 kts 139°
2026-05-04 20:55 48.46418 2.35053 34957 ft 421 kts 139°
2026-05-04 20:56 48.42283 2.41301 34961 ft 421 kts 139°
2026-05-04 20:56 48.38154 2.47533 34950 ft 421 kts 139°
2026-05-04 20:57 48.34018 2.53764 34953 ft 420 kts 139°
2026-05-04 20:57 48.29877 2.59951 34943 ft 419 kts 142°
2026-05-04 20:58 48.25101 2.64690 34944 ft 409 kts 159°
2026-05-04 20:58 48.19935 2.68281 34942 ft 410 kts 157°
2026-05-04 20:59 48.14884 2.72310 34946 ft 412 kts 155°
2026-05-04 20:59 48.09876 2.76492 34942 ft 412 kts 155°
2026-05-04 21:00 48.04723 2.80110 34941 ft 408 kts 160°
2026-05-04 21:00 47.99493 2.83429 34941 ft 408 kts 161°
2026-05-04 21:01 47.94262 2.86735 34943 ft 408 kts 161°
2026-05-04 21:01 47.89031 2.90042 34942 ft 408 kts 161°
2026-05-04 21:02 47.83805 2.93351 34946 ft 408 kts 161°
2026-05-04 21:02 47.78584 2.96657 34947 ft 408 kts 161°
2026-05-04 21:03 47.73395 2.99927 34943 ft 408 kts 161°
2026-05-04 21:03 47.68177 3.03202 34940 ft 407 kts 162°
2026-05-04 21:04 47.62962 3.06476 34946 ft 406 kts 162°
2026-05-04 21:04 47.57754 3.09729 34946 ft 406 kts 162°
2026-05-04 21:05 47.52547 3.12977 34941 ft 406 kts 162°
2026-05-04 21:05 47.47340 3.16216 34945 ft 406 kts 162°
2026-05-04 21:06 47.42137 3.19449 34941 ft 406 kts 162°
2026-05-04 21:06 47.36936 3.22693 34941 ft 405 kts 162°
2026-05-04 21:07 47.31734 3.25910 34937 ft 406 kts 162°
2026-05-04 21:07 47.26529 3.29120 34936 ft 405 kts 162°
2026-05-04 21:08 47.21326 3.32316 34939 ft 405 kts 162°
2026-05-04 21:08 47.16125 3.35509 34941 ft 405 kts 162°
2026-05-04 21:09 47.10929 3.38696 34938 ft 405 kts 162°
2026-05-04 21:09 47.05735 3.41878 34941 ft 404 kts 162°
2026-05-04 21:10 47.00542 3.45047 34943 ft 404 kts 162°
2026-05-04 21:10 46.95352 3.48210 34941 ft 404 kts 162°
2026-05-04 21:11 46.90167 3.51379 34941 ft 404 kts 162°
2026-05-04 21:11 46.84983 3.54533 34941 ft 403 kts 162°
2026-05-04 21:12 46.79800 3.57666 34941 ft 403 kts 162°
2026-05-04 21:12 46.74708 3.61113 34942 ft 409 kts 151°
2026-05-04 21:13 46.72496 3.63763 34937 ft 417 kts 139°
2026-05-04 21:13 46.70691 3.67113 34938 ft 425 kts 127°
2026-05-04 21:13 46.69403 3.71034 34937 ft 434 kts 114°
2026-05-04 21:13 46.68620 3.75312 34933 ft 439 kts 109°
2026-05-04 21:14 46.67379 3.82706 34931 ft 439 kts 110°
2026-05-04 21:14 46.66099 3.90184 34931 ft 439 kts 110°
2026-05-04 21:15 46.64825 3.97591 34929 ft 440 kts 110°
2026-05-04 21:15 46.63330 4.06218 34925 ft 440 kts 110°
2026-05-04 21:16 46.61825 4.14853 34926 ft 441 kts 110°
2026-05-04 21:16 46.60322 4.23497 34928 ft 441 kts 110°
2026-05-04 21:17 46.58804 4.32151 34929 ft 442 kts 110°
2026-05-04 21:17 46.57273 4.40801 34930 ft 442 kts 110°
2026-05-04 21:18 46.55729 4.49458 34932 ft 443 kts 110°
2026-05-04 21:18 46.54178 4.58132 34936 ft 444 kts 110°
2026-05-04 21:19 46.52623 4.66814 34934 ft 444 kts 110°
2026-05-04 21:19 46.51062 4.75506 34934 ft 445 kts 110°
2026-05-04 21:20 46.49488 4.84206 34935 ft 446 kts 110°
2026-05-04 21:20 46.47916 4.92857 34943 ft 447 kts 110°
2026-05-04 21:21 46.46321 5.01574 34939 ft 448 kts 110°
2026-05-04 21:21 46.44712 5.10309 34943 ft 449 kts 110°
2026-05-04 21:22 46.43099 5.19064 34951 ft 450 kts 110°
2026-05-04 21:22 46.41487 5.27827 34953 ft 450 kts 110°
2026-05-04 21:23 46.39847 5.36592 34957 ft 450 kts 112°
2026-05-04 21:23 46.37187 5.44622 34959 ft 438 kts 130°
2026-05-04 21:24 46.33352 5.51382 34962 ft 434 kts 136°
2026-05-04 21:24 46.29422 5.58036 34964 ft 436 kts 136°
2026-05-04 21:25 46.25477 5.64702 34970 ft 436 kts 136°
2026-05-04 21:25 46.21526 5.71367 34974 ft 437 kts 135°
2026-05-04 21:26 46.17563 5.78031 34976 ft 438 kts 136°
2026-05-04 21:26 46.13591 5.84699 34979 ft 438 kts 135°
2026-05-04 21:27 46.09620 5.91366 34978 ft 438 kts 136°
2026-05-04 21:27 46.05633 5.98027 34980 ft 439 kts 136°
2026-05-04 21:28 46.01636 6.04685 34986 ft 440 kts 136°
2026-05-04 21:28 45.97631 6.11338 34987 ft 440 kts 136°
2026-05-04 21:29 45.93622 6.17991 34990 ft 440 kts 136°
2026-05-04 21:29 45.89602 6.24625 34994 ft 440 kts 136°
2026-05-04 21:30 45.85586 6.31256 34999 ft 440 kts 136°
2026-05-04 21:30 45.81566 6.37798 35001 ft 438 kts 140°
2026-05-04 21:31 45.74414 6.45633 35010 ft 431 kts 150°
2026-05-04 21:32 45.69497 6.50632 35005 ft 431 kts 150°
2026-05-04 21:32 45.64607 6.55598 35012 ft 432 kts 149°
2026-05-04 21:33 45.59744 6.60541 35020 ft 432 kts 149°
2026-05-04 21:33 45.54846 6.65502 35037 ft 432 kts 149°
2026-05-04 21:34 45.49938 6.70451 35047 ft 431 kts 149°
2026-05-04 21:34 45.45029 6.75383 35059 ft 432 kts 149°
2026-05-04 21:35 45.40113 6.80321 35065 ft 433 kts 149°
2026-05-04 21:35 45.35195 6.85250 35080 ft 432 kts 150°
2026-05-04 21:36 45.30271 6.90168 35089 ft 433 kts 150°
2026-05-04 21:36 45.25456 6.95348 35088 ft 439 kts 141°
2026-05-04 21:37 45.21083 7.01401 35097 ft 439 kts 140°
2026-05-04 21:37 45.16699 7.07446 35095 ft 440 kts 141°
2026-05-04 21:38 45.13048 7.12449 35089 ft 439 kts 141°
2026-05-04 21:38 45.09017 7.18992 35084 ft 446 kts 129°
2026-05-04 21:39 45.05461 7.26180 35088 ft 446 kts 129°
2026-05-04 21:39 45.01886 7.33360 35090 ft 446 kts 130°
2026-05-04 21:40 44.98267 7.40494 35084 ft 445 kts 134°
2026-05-04 21:40 44.94038 7.46780 35096 ft 441 kts 140°
2026-05-04 21:41 44.89742 7.52962 35096 ft 442 kts 140°
2026-05-04 21:41 44.85438 7.59163 35098 ft 442 kts 140°
2026-05-04 21:42 44.81130 7.65347 35098 ft 442 kts 140°
2026-05-04 21:42 44.76814 7.71529 35098 ft 443 kts 140°
2026-05-04 21:43 44.72489 7.77701 35099 ft 443 kts 140°
2026-05-04 21:43 44.68194 7.83836 35101 ft 443 kts 140°
2026-05-04 21:44 44.63871 7.89996 35097 ft 443 kts 141°
2026-05-04 21:44 44.59539 7.96144 35097 ft 443 kts 141°
2026-05-04 21:45 44.55202 8.02282 35093 ft 443 kts 141°
2026-05-04 21:45 44.50852 8.08418 35083 ft 444 kts 141°
2026-05-04 21:46 44.46497 8.14552 35096 ft 444 kts 141°
2026-05-04 21:46 44.42142 8.20696 35095 ft 445 kts 141°
2026-05-04 21:47 44.37774 8.26835 35094 ft 445 kts 141°
2026-05-04 21:47 44.33401 8.32961 35096 ft 445 kts 141°
2026-05-04 21:48 44.29022 8.39085 35099 ft 446 kts 141°
2026-05-04 21:48 44.24633 8.45190 35098 ft 445 kts 141°
2026-05-04 21:49 44.20242 8.51288 35098 ft 446 kts 141°
2026-05-04 21:49 44.15850 8.57382 35097 ft 446 kts 141°
2026-05-04 21:50 44.11454 8.63474 35095 ft 446 kts 141°
2026-05-04 21:50 44.07056 8.69560 35095 ft 446 kts 141°
2026-05-04 21:51 44.02644 8.75637 35095 ft 447 kts 141°
2026-05-04 21:51 43.98229 8.81712 35095 ft 447 kts 141°
2026-05-04 21:52 43.93802 8.87791 35090 ft 448 kts 142°
2026-05-04 21:52 43.89389 8.93833 35085 ft 449 kts 142°
2026-05-04 21:53 43.84939 8.99927 35079 ft 451 kts 142°
2026-05-04 21:53 43.80473 9.06027 35094 ft 451 kts 142°
2026-05-04 21:54 43.75991 9.12110 35097 ft 452 kts 142°
2026-05-04 21:54 43.71504 9.18197 35094 ft 452 kts 142°
2026-05-04 21:55 43.67009 9.24284 35092 ft 453 kts 142°
2026-05-04 21:55 43.62504 9.30371 35087 ft 453 kts 142°
2026-05-04 21:56 43.57994 9.36455 35077 ft 454 kts 142°
2026-05-04 21:56 43.53473 9.42545 35080 ft 454 kts 142°
2026-05-04 21:57 43.48951 9.48621 35070 ft 454 kts 142°
2026-05-04 21:57 43.44414 9.54688 35076 ft 455 kts 142°
2026-05-04 21:58 43.39871 9.60756 35083 ft 455 kts 142°
2026-05-04 21:58 43.35324 9.66819 35081 ft 456 kts 142°
2026-05-04 21:59 43.30771 9.72880 35085 ft 456 kts 142°
2026-05-04 21:59 43.26216 9.78938 35090 ft 456 kts 142°
2026-05-04 22:00 43.21657 9.84976 35092 ft 456 kts 142°
2026-05-04 22:00 43.16719 9.90195 35084 ft 442 kts 158°
2026-05-04 22:01 43.11273 9.94003 35076 ft 439 kts 160°
2026-05-04 22:01 43.05813 9.97782 35078 ft 440 kts 160°
2026-05-04 22:02 43.00351 10.01569 35072 ft 441 kts 159°
2026-05-04 22:02 42.94873 10.05360 35061 ft 442 kts 159°
2026-05-04 22:03 42.89412 10.09129 35064 ft 444 kts 159°
2026-05-04 22:03 42.83898 10.12932 35068 ft 445 kts 159°
2026-05-04 22:04 42.78368 10.16733 35074 ft 445 kts 159°
2026-05-04 22:04 42.72830 10.20525 35072 ft 446 kts 159°
2026-05-04 22:05 42.67284 10.24315 35077 ft 446 kts 159°